Orbital Elements at Epoch 2459200.5 (2020-Dec-17.0) TDB
Reference: JPL 23 (heliocentric ecliptic J2000)
Element | Value | Uncertainty (1-sigma) | Units |
e | .1056851229290087 | 7.6131e-08 | |
a | 2.652442381744196 | 1.758e-08 | au |
q | 2.372118682567448 | 2.0077e-07 | au |
i | 22.03851605684316 | 7.9805e-06 | deg |
node | 12.05928199286365 | 1.1362e-05 | deg |
peri | 62.02345625264935 | 4.3056e-05 | deg |
M | 154.6688731088798 | 3.7472e-05 | deg |
tp | 2458522.596641717664 (2019-Feb-08.09664172) | 0.00016397 | TDB |
period | 1577.855996984243 4.32 | 1.5687e-05 4.295e-08 | d yr |
n | .2281577030401178 | 2.2683e-09 | deg/d |
Q | 2.932766080920944 | 1.9438e-08 | au |
|
| | Orbit Determination Parameters
Additional Information
|